Oakland, CA

7:53 AM PST on December 13, 2019 (GMT -0800)
Metro Oakland International

Weather History for KOAK - October, 2019

Change the Weather History Date:

Saturday, October 19, 2019

  Actual Average Record
Temperature  
Mean Temperature 58 °F 60 °F  
Max Temperature 68 °F 69 °F 89 °F (1998)
Min Temperature 48 °F 51 °F 43 °F (1949)
Degree Days  
Heating Degree Days 7 5  
Month to date heating degree days 84 77  
Since 1 July heating degree days 114 277  
Cooling Degree Days 0 0  
Month to date cooling degree days 9 12  
Year to date cooling degree days 373 137  
Growing Degree Days 7 (Base 50)    
Moisture  
Dew Point 52 °F    
Average Humidity 79    
Maximum Humidity 93    
Minimum Humidity 64    
Precipitation  
Precipitation 0.00 in 0.04 in 1.29 in (2004)
Month to date precipitation T 0.54  
Year to date precipitation 15.94 14.04  
Sea Level Pressure  
Sea Level Pressure 30.09 in    
Wind  
Wind Speed 6 mph (SSW)    
Max Wind Speed 16 mph    
Max Gust Speed 18 mph    
Visibility 10 miles    
Events      
T = Trace of Precipitation, MM = Missing Value Source: NWS Daily Summary

Daily Weather History Graph

Daily Weather History Graph

Search for Another Location

Airport or City:

Astronomy

Oct. 19, 2019 Rise Set
Actual Time 7:20 AM PDT 6:26 PM PDT
Civil Twilight 6:54 AM PDT 6:52 PM PDT
Nautical Twilight 6:23 AM PDT 7:23 PM PDT
Astronomical Twilight 5:53 AM PDT 7:53 PM PDT
Moon 10:44 PM PDT (10/19) 12:53 PM PDT (10/19)
Length of Visible Light 11h 58m
Length of Day
11h 05m
Waning Gibbous, 68% of the Moon is Illuminated
Oct 19
Waning Gibbous
Oct 21
Last Quarter
Oct 27
New
Nov 4
First Quarter
Nov 12
Full

Hourly Weather History & Observations

Time (PDT) Temp. Dew Point Humidity Pressure Visibility Wind Dir Wind Speed Gust Speed Precip Events Conditions
12:53 AM 51.1 °F 46.9 °F 86% 30.09 in 10.0 mi ENE 4.6 mph - N/A   Clear
1:53 AM 52.0 °F 48.9 °F 89% 30.09 in 9.0 mi Calm Calm - N/A   Clear
2:53 AM 48.0 °F 45.0 °F 89% 30.09 in 9.0 mi Variable 3.5 mph - N/A   Clear
3:53 AM 51.1 °F 46.9 °F 86% 30.08 in 10.0 mi ESE 4.6 mph - N/A   Clear
4:53 AM 48.9 °F 46.0 °F 90% 30.09 in 10.0 mi Calm Calm - N/A   Partly Cloudy
5:53 AM 48.0 °F 45.0 °F 89% 30.09 in 10.0 mi Calm Calm - N/A   Mostly Cloudy
6:53 AM 51.1 °F 46.0 °F 83% 30.09 in 10.0 mi ESE 5.8 mph - N/A   Mostly Cloudy
7:53 AM 53.1 °F 46.9 °F 80% 30.11 in 10.0 mi ESE 8.1 mph - N/A   Mostly Cloudy
8:53 AM 55.9 °F 48.0 °F 75% 30.11 in 10.0 mi SE 9.2 mph - N/A   Mostly Cloudy
9:53 AM 60.1 °F 48.9 °F 67% 30.13 in 10.0 mi SSE 10.4 mph - N/A   Mostly Cloudy
10:53 AM 63.0 °F 50.0 °F 63% 30.13 in 10.0 mi SSE 8.1 mph - N/A   Mostly Cloudy
11:53 AM 63.0 °F 51.1 °F 65% 30.13 in 10.0 mi South 5.8 mph - N/A   Mostly Cloudy
12:31 PM 63.0 °F 52.0 °F 67% 30.11 in 10.0 mi SSW 5.8 mph - N/A   Mostly Cloudy
12:53 PM 64.0 °F 55.0 °F 73% 30.10 in 10.0 mi WSW 4.6 mph - N/A   Mostly Cloudy
1:29 PM 64.0 °F 55.9 °F 75% 30.10 in 10.0 mi West 5.8 mph - N/A   Mostly Cloudy
1:53 PM 64.9 °F 57.0 °F 75% 30.09 in 10.0 mi West 5.8 mph - N/A   Overcast
2:53 PM 66.9 °F 57.0 °F 70% 30.07 in 10.0 mi West 10.4 mph - N/A   Mostly Cloudy
3:41 PM 64.9 °F 57.9 °F 78% 30.07 in 10.0 mi West 10.4 mph - N/A   Overcast
3:53 PM 64.0 °F 57.9 °F 80% 30.07 in 7.0 mi West 10.4 mph - N/A   Overcast
4:53 PM 63.0 °F 57.0 °F 81% 30.06 in 10.0 mi West 12.7 mph - N/A   Mostly Cloudy
5:28 PM 61.0 °F 55.0 °F 81% 30.06 in 10.0 mi West 15.0 mph - N/A   Mostly Cloudy
5:53 PM 59.0 °F 54.0 °F 83% 30.06 in 10.0 mi West 13.8 mph - N/A   Overcast
6:53 PM 59.0 °F 54.0 °F 83% 30.05 in 10.0 mi West 9.2 mph - N/A   Overcast
7:53 PM 59.0 °F 54.0 °F 83% 30.06 in 10.0 mi WSW 5.8 mph - N/A   Overcast
8:53 PM 57.9 °F 54.0 °F 87% 30.08 in 10.0 mi Calm Calm - N/A   Overcast
9:53 PM 57.0 °F 53.1 °F 87% 30.08 in 10.0 mi SE 3.5 mph - N/A   Mostly Cloudy
10:53 PM 57.0 °F 54.0 °F 89% 30.09 in 10.0 mi Calm Calm - N/A   Scattered Clouds
11:53 PM 57.0 °F 54.0 °F 89% 30.09 in 10.0 mi South 3.5 mph - N/A   Scattered Clouds